TimeEDT,TemperatureF,Dew PointF,Humidity,Sea Level PressureIn,VisibilityMPH,Wind Direction,Wind SpeedMPH,Gust SpeedMPH,PrecipitationIn,Events,Conditions,WindDirDegrees,DateUTC
12:15 AM,63.0,63.0,100,30.25,5.0,Calm,Calm,-,N/A,,Overcast,0,2013-09-19 04:15:00
12:35 AM,63.0,63.0,100,30.25,5.0,Calm,Calm,-,N/A,,Overcast,0,2013-09-19 04:35:00
12:55 AM,63.0,63.0,100,30.25,5.0,WSW,3.5,-,N/A,,Overcast,240,2013-09-19 04:55:00
1:15 AM,63.0,63.0,100,30.24,5.0,WSW,3.5,-,N/A,,Overcast,240,2013-09-19 05:15:00
1:35 AM,63.0,63.0,100,30.24,5.0,Calm,Calm,-,N/A,,Overcast,0,2013-09-19 05:35:00
1:55 AM,63.0,63.0,100,30.24,5.0,WSW,3.5,-,N/A,,Overcast,250,2013-09-19 05:55:00
2:15 AM,63.1,63.1,100,30.24,5.0,SW,3.5,-,N/A,,Overcast,230,2013-09-19 06:15:00
2:35 AM,63.0,63.0,100,30.24,3.0,WSW,5.8,-,N/A,,Overcast,250,2013-09-19 06:35:00
2:55 AM,63.0,63.0,100,30.24,2.5,West,3.5,-,N/A,,Overcast,260,2013-09-19 06:55:00
3:15 AM,63.0,63.0,100,30.23,2.5,WSW,5.8,-,N/A,,Overcast,250,2013-09-19 07:15:00
3:35 AM,62.8,62.8,100,30.23,2.5,West,5.8,-,N/A,,Overcast,260,2013-09-19 07:35:00
3:55 AM,62.8,62.8,100,30.23,3.0,WSW,4.6,-,N/A,,Overcast,240,2013-09-19 07:55:00
4:15 AM,62.8,62.8,100,30.23,3.0,West,5.8,-,N/A,,Overcast,260,2013-09-19 08:15:00
4:35 AM,62.8,62.8,100,30.23,3.0,West,5.8,-,N/A,,Overcast,260,2013-09-19 08:35:00
4:55 AM,62.8,62.8,100,30.22,3.0,WSW,3.5,-,N/A,,Overcast,250,2013-09-19 08:55:00
5:15 AM,63.0,63.0,100,30.22,5.0,Calm,Calm,-,N/A,,Overcast,0,2013-09-19 09:15:00
5:35 AM,62.8,62.8,100,30.22,5.0,Calm,Calm,-,N/A,,Overcast,0,2013-09-19 09:35:00
5:55 AM,63.0,63.0,100,30.23,5.0,Calm,Calm,-,N/A,,Overcast,0,2013-09-19 09:55:00
6:15 AM,63.0,63.0,100,30.23,5.0,Calm,Calm,-,N/A,,Overcast,0,2013-09-19 10:15:00
6:35 AM,63.0,63.0,100,30.22,5.0,Calm,Calm,-,N/A,,Overcast,0,2013-09-19 10:35:00
6:55 AM,63.0,63.0,100,30.23,5.0,West,3.5,-,N/A,,Overcast,270,2013-09-19 10:55:00
7:15 AM,63.3,63.3,100,30.23,5.0,West,3.5,-,N/A,,Overcast,280,2013-09-19 11:15:00
7:35 AM,63.0,63.0,100,30.24,2.0,Calm,Calm,-,0.02,Rain,Light Rain,0,2013-09-19 11:35:00
7:55 AM,63.5,63.5,100,30.24,3.0,WSW,3.5,-,0.02,,Overcast,250,2013-09-19 11:55:00
8:15 AM,63.5,63.5,100,30.24,3.0,Calm,Calm,-,N/A,,Overcast,0,2013-09-19 12:15:00
8:35 AM,63.5,63.5,100,30.24,3.0,West,4.6,-,N/A,,Overcast,260,2013-09-19 12:35:00
8:55 AM,63.7,63.7,100,30.24,4.0,West,4.6,-,N/A,,Overcast,260,2013-09-19 12:55:00
9:15 AM,64.4,64.4,100,30.25,4.0,WSW,4.6,-,N/A,,Overcast,250,2013-09-19 13:15:00
9:35 AM,64.4,64.4,100,30.25,4.0,WSW,5.8,-,N/A,,Overcast,250,2013-09-19 13:35:00
9:55 AM,64.2,64.2,100,30.27,3.0,WNW,4.6,-,N/A,Rain,Rain,290,2013-09-19 13:55:00
10:15 AM,64.6,64.6,100,30.27,4.0,WSW,5.8,-,N/A,,Overcast,240,2013-09-19 14:15:00
10:35 AM,65.3,65.3,100,30.27,5.0,WSW,5.8,-,N/A,,Overcast,250,2013-09-19 14:35:00
10:55 AM,65.3,65.3,100,30.27,4.0,WSW,6.9,-,N/A,,Overcast,240,2013-09-19 14:55:00
11:15 AM,67.1,66.2,97,30.26,5.0,West,11.5,16.1,N/A,,Overcast,260,2013-09-19 15:15:00
11:35 AM,67.3,65.8,95,30.26,10.0,WSW,10.4,17.3,N/A,,Overcast,250,2013-09-19 15:35:00
11:55 AM,66.4,64.8,95,30.26,10.0,WSW,10.4,-,N/A,,Overcast,240,2013-09-19 15:55:00
12:15 PM,66.2,64.8,95,30.26,10.0,WSW,10.4,-,N/A,,Overcast,250,2013-09-19 16:15:00
12:35 PM,65.7,65.7,100,30.26,2.5,WSW,10.4,-,N/A,,Drizzle,250,2013-09-19 16:35:00
12:55 PM,65.7,65.7,100,30.25,3.0,WSW,8.1,-,N/A,,Light Drizzle,250,2013-09-19 16:55:00
1:15 PM,65.5,65.5,100,30.25,2.5,WSW,8.1,-,N/A,,Overcast,250,2013-09-19 17:15:00
1:35 PM,65.7,65.7,100,30.24,2.0,WSW,9.2,-,N/A,Rain,Rain,250,2013-09-19 17:35:00
1:55 PM,65.7,65.7,100,30.24,7.0,West,8.1,-,N/A,,Overcast,260,2013-09-19 17:55:00
2:15 PM,65.7,65.7,100,30.23,5.0,WSW,6.9,-,N/A,,Overcast,250,2013-09-19 18:15:00
2:35 PM,65.8,65.8,100,30.23,7.0,WSW,6.9,-,N/A,,Overcast,250,2013-09-19 18:35:00
2:55 PM,65.8,65.8,100,30.23,7.0,WSW,6.9,-,N/A,,Overcast,250,2013-09-19 18:55:00
3:15 PM,65.8,65.8,100,30.23,4.0,WSW,5.8,-,N/A,,Drizzle,240,2013-09-19 19:15:00
3:35 PM,65.7,65.7,100,30.22,4.0,WSW,3.5,-,N/A,,Drizzle,250,2013-09-19 19:35:00
3:55 PM,66.0,66.0,100,30.22,3.0,WSW,4.6,-,N/A,,Drizzle,240,2013-09-19 19:55:00
4:15 PM,65.8,65.8,100,30.21,3.0,WSW,6.9,-,0.01,Rain,Rain,240,2013-09-19 20:15:00
4:35 PM,66.2,66.2,100,30.22,4.0,West,6.9,-,0.02,Rain,Light Rain,260,2013-09-19 20:35:00
4:55 PM,66.2,66.2,100,30.21,5.0,WSW,4.6,-,0.03,Rain,Rain,250,2013-09-19 20:55:00
5:15 PM,66.2,66.2,100,30.21,4.0,SW,5.8,-,N/A,,Drizzle,230,2013-09-19 21:15:00
5:35 PM,66.4,66.4,100,30.21,1.5,WSW,5.8,-,N/A,,Overcast,250,2013-09-19 21:35:00
5:55 PM,66.2,66.2,100,30.21,1.2,West,4.6,-,N/A,,Overcast,280,2013-09-19 21:55:00
6:15 PM,66.4,66.4,100,30.20,1.2,WSW,4.6,-,N/A,,Overcast,250,2013-09-19 22:15:00
6:35 PM,66.6,66.6,100,30.20,1.2,West,4.6,-,N/A,,Overcast,260,2013-09-19 22:35:00
6:55 PM,66.6,66.6,100,30.20,1.2,West,3.5,-,N/A,,Overcast,270,2013-09-19 22:55:00
7:15 PM,66.6,66.6,100,30.19,1.5,Calm,Calm,-,N/A,,Overcast,0,2013-09-19 23:15:00
7:35 PM,66.6,66.6,100,30.19,1.0,West,3.5,-,N/A,,Overcast,280,2013-09-19 23:35:00
7:55 PM,66.4,66.4,100,30.18,2.0,WSW,4.6,-,N/A,,Overcast,250,2013-09-19 23:55:00
8:15 PM,66.4,66.4,100,30.19,1.5,WSW,4.6,-,N/A,,Overcast,250,2013-09-20 00:15:00
8:35 PM,66.6,66.6,100,30.19,1.8,WSW,3.5,-,N/A,,Overcast,240,2013-09-20 00:35:00
8:55 PM,66.6,66.6,100,30.19,1.8,West,3.5,-,N/A,,Overcast,270,2013-09-20 00:55:00
9:15 PM,66.6,66.6,100,30.19,2.0,Calm,Calm,-,N/A,,Overcast,0,2013-09-20 01:15:00
9:35 PM,66.6,66.6,100,30.19,2.0,Calm,Calm,-,N/A,,Overcast,0,2013-09-20 01:35:00
9:55 PM,66.4,66.4,100,30.19,1.8,West,3.5,-,N/A,,Overcast,270,2013-09-20 01:55:00
10:15 PM,66.2,66.2,100,30.19,1.2,West,3.5,-,N/A,,Overcast,280,2013-09-20 02:15:00
10:35 PM,66.2,66.2,100,30.19,0.2,Calm,Calm,-,N/A,Fog,Fog,0,2013-09-20 02:35:00
10:55 PM,65.8,65.8,100,30.18,0.2,West,3.5,-,N/A,Fog,Fog,260,2013-09-20 02:55:00
11:15 PM,65.8,65.8,100,30.18,0.2,West,4.6,-,N/A,Fog,Fog,270,2013-09-20 03:15:00
11:35 PM,65.7,65.7,100,30.19,0.2,West,4.6,-,N/A,Fog,Fog,270,2013-09-20 03:35:00
11:55 PM,65.5,65.5,100,30.19,0.2,West,4.6,-,N/A,Fog,Fog,260,2013-09-20 03:55:00